User: anonymous   Login
Location: Unspecified
(0.0000°N, 0.0000°E)
Time: 22:25:28
(UTC+00:00)
Language:

TBA - TO BE ASSIGNED - Orbit

View from above orbital plane
View from above orbital plane
View from above satellite
View from above satellite

Ground track
Ground track

The orbit is defined by the following mean orbital elements,

1 68712U          26145.40771595 +.00000000 +00000-0 +92820-3 0 00007
2 68712  53.1602  38.1078 0000967  98.1288 261.9831 15.49331484    00
Epoch (UTC): 25 May 2026 09:47:06
Eccentricity: 0.0000967
inclination: 53.1602°
perigee height: 418 km
apogee height: 419 km
right ascension of ascending node: 38.1078°
argument of perigee: 98.1288°
revolutions per day: 15.49331484
mean anomaly at epoch: 261.9831°

The dashed part of the orbit path shows where the satellite is in the earth's shadow,  

DLR